Orbital elements: 2009 HZ67 Earth MOID = 0.0605 AU Epoch 2009 June 18.0 TT = JDT 2455000.5 MPC M 37.29047 (2000.0) P Q n 0.33535575 Peri. 314.00679 -0.72817433 -0.68531563 a 2.0517867 Node 182.79212 +0.67345645 -0.71264090 e 0.6191633 Incl. 12.12221 +0.12735210 -0.14995148 P 2.94 H 21.2 G 0.15 U 9